When you browse on this site, cookies collect data to enhance your experience and personalize the content and advertising you see.
Visit our Privacy Policy to learn more. By continuing to use the site, you agree to this use of cookies and data.
  • In Hungary
  • List of Countries
  • For 7 days
  • Water Temperature
  • Weather Map
  • News
  • Weather Widgets
  • user-avatar
    Login

    Hourly Weather Ciemierow

    Today, 8 April, Wednesday

    Time Temperature Precipitation Wind Pressure Humidity
    00:00 +9°C° 0 mm 3 mps 766 mmHg 67%
    01:00 +8°C° 0 mm 3 mps 767 mmHg 67%
    02:00 +8°C° 0 mm 3 mps 766 mmHg 69%
    03:00 +7°C° 0 mm 2 mps 766 mmHg 71%
    04:00 +7°C° 0 mm 2 mps 766 mmHg 73%
    05:00 +7°C° 0 mm 2 mps 766 mmHg 72%
    06:00 +8°C° 0 mm 2 mps 766 mmHg 70%
    07:00 +9°C° 0 mm 3 mps 766 mmHg 69%
    08:00 +11°C° 0 mm 3 mps 765 mmHg 64%
    09:00 +12°C° 0 mm 3 mps 765 mmHg 59%
    10:00 +14°C° 0 mm 3 mps 765 mmHg 54%
    11:00 +16°C° 0 mm 2 mps 764 mmHg 53%
    12:00 +18°C° 0 mm 2 mps 764 mmHg 51%
    13:00 +19°C° 0 mm 2 mps 763 mmHg 50%
    14:00 +19°C° 0 mm 2 mps 763 mmHg 49%
    15:00 +20°C° 0 mm 2 mps 762 mmHg 48%
    16:00 +21°C° 0 mm 1 mps 761 mmHg 47%
    17:00 +19°C° 0 mm 1 mps 761 mmHg 52%
    18:00 +18°C° 0 mm 1 mps 761 mmHg 57%
    19:00 +15°C° 0 mm 2 mps 760 mmHg 62%
    20:00 +14°C° 0 mm 1 mps 760 mmHg 63%
    21:00 +13°C° 0 mm 1 mps 760 mmHg 64%
    22:00 +13°C° 0 mm 1 mps 760 mmHg 65%
    23:00 +12°C° 0 mm 2 mps 760 mmHg 63%

    Tomorrow, 9 April, Thursday

    Time Temperature Precipitation Wind Pressure Humidity
    00:00 +10°C° 0 mm 2 mps 759 mmHg 61%
    01:00 +10°C° 0 mm 3 mps 759 mmHg 60%
    02:00 +9°C° 0 mm 3 mps 759 mmHg 59%
    03:00 +9°C° 0 mm 3 mps 758 mmHg 58%
    04:00 +8°C° 0 mm 3 mps 758 mmHg 58%
    05:00 +9°C° 0 mm 3 mps 758 mmHg 59%
    06:00 +9°C° 0 mm 3 mps 758 mmHg 59%
    07:00 +10°C° 0 mm 3 mps 757 mmHg 60%
    08:00 +11°C° 0 mm 4 mps 757 mmHg 58%
    09:00 +13°C° 0 mm 4 mps 757 mmHg 57%
    10:00 +15°C° 0 mm 4 mps 757 mmHg 55%
    11:00 +15°C° 0 mm 5 mps 757 mmHg 58%
    12:00 +15°C° 0 mm 5 mps 757 mmHg 62%
    13:00 +15°C° 0 mm 5 mps 757 mmHg 65%
    14:00 +15°C° 0 mm 6 mps 757 mmHg 60%
    15:00 +16°C° 0 mm 6 mps 757 mmHg 56%
    16:00 +16°C° 0 mm 6 mps 757 mmHg 51%
    17:00 +14°C° 0 mm 6 mps 758 mmHg 57%
    18:00 +13°C° 0 mm 5 mps 758 mmHg 62%
    19:00 +11°C° 0 mm 4 mps 759 mmHg 67%
    20:00 +10°C° 0 mm 4 mps 759 mmHg 62%
    21:00 +7°C° 0 mm 4 mps 760 mmHg 57%
    22:00 +5°C° 0 mm 4 mps 760 mmHg 53%
    23:00 +5°C° 0 mm 3 mps 761 mmHg 56%

    Day after tomorrow, 10 April, Friday

    Time Temperature Precipitation Wind Pressure Humidity
    00:00 +4°C° 0 mm 3 mps 761 mmHg 59%
    01:00 +3°C° 0 mm 3 mps 761 mmHg 63%
    02:00 +3°C° 0 mm 3 mps 761 mmHg 66%
    03:00 +2°C° 0 mm 3 mps 761 mmHg 69%
    04:00 +2°C° 0 mm 3 mps 761 mmHg 72%
    05:00 +3°C° 0 mm 3 mps 762 mmHg 72%
    06:00 +4°C° 0 mm 2 mps 762 mmHg 71%
    07:00 +5°C° 0 mm 2 mps 762 mmHg 70%
    08:00 +7°C° 0 mm 3 mps 762 mmHg 63%
    09:00 +8°C° 0 mm 3 mps 762 mmHg 56%
    10:00 +10°C° 0 mm 3 mps 762 mmHg 49%
    11:00 +10°C° 0 mm 3 mps 762 mmHg 46%
    12:00 +11°C° 0 mm 3 mps 762 mmHg 43%
    13:00 +12°C° 0 mm 3 mps 762 mmHg 40%
    14:00 +12°C° 0 mm 3 mps 761 mmHg 40%
    15:00 +13°C° 0 mm 2 mps 761 mmHg 40%
    16:00 +13°C° 0 mm 2 mps 761 mmHg 40%
    17:00 +12°C° 0 mm 2 mps 761 mmHg 44%
    18:00 +10°C° 0 mm 1 mps 761 mmHg 49%
    19:00 +9°C° 0 mm 1 mps 761 mmHg 53%
    20:00 +7°C° 0 mm 0 mps 761 mmHg 54%
    21:00 +7°C° 0 mm 0 mps 761 mmHg 55%
    22:00 +6°C° 0 mm 0 mps 761 mmHg 56%
    23:00 +6°C° 0 mm 0 mps 761 mmHg 57%

    11 April, Saturday

    Time Temperature Precipitation Wind Pressure Humidity
    00:00 +5°C° 0 mm 0 mps 761 mmHg 59%
    01:00 +6°C° 0 mm 1 mps 761 mmHg 61%
    02:00 +5°C° 0 mm 1 mps 762 mmHg 63%
    03:00 +4°C° 0 mm 0 mps 762 mmHg 65%
    04:00 +4°C° 0 mm 0 mps 762 mmHg 67%
    05:00 +6°C° 0 mm 1 mps 762 mmHg 65%
    06:00 +7°C° 0 mm 1 mps 762 mmHg 63%
    07:00 +8°C° 0 mm 1 mps 762 mmHg 61%
    08:00 +9°C° 0 mm 1 mps 762 mmHg 56%
    09:00 +11°C° 0 mm 1 mps 762 mmHg 52%
    10:00 +13°C° 0 mm 2 mps 762 mmHg 47%
    11:00 +13°C° 0 mm 2 mps 762 mmHg 44%
    12:00 +14°C° 0 mm 2 mps 761 mmHg 42%
    13:00 +15°C° 0 mm 2 mps 761 mmHg 39%
    14:00 +15°C° 0 mm 2 mps 761 mmHg 39%
    15:00 +15°C° 0 mm 1 mps 760 mmHg 39%
    16:00 +15°C° 0 mm 1 mps 760 mmHg 39%
    17:00 +14°C° 0 mm 1 mps 760 mmHg 43%
    18:00 +12°C° 0 mm 1 mps 760 mmHg 48%
    19:00 +10°C° 0 mm 1 mps 760 mmHg 52%
    20:00 +10°C° 0 mm 1 mps 760 mmHg 53%
    21:00 +9°C° 0 mm 1 mps 760 mmHg 54%
    22:00 +9°C° 0 mm 1 mps 760 mmHg 55%
    23:00 +9°C° 0 mm 1 mps 759 mmHg 56%

    12 April, Sunday

    Time Temperature Precipitation Wind Pressure Humidity
    00:00 +7°C° 0 mm 2 mps 759 mmHg 58%
    01:00 +7°C° 0 mm 2 mps 759 mmHg 59%
    02:00 +7°C° 0 mm 2 mps 758 mmHg 60%
    03:00 +6°C° 0 mm 2 mps 758 mmHg 61%
    04:00 +6°C° 0 mm 2 mps 757 mmHg 62%
    05:00 +7°C° 0 mm 2 mps 757 mmHg 61%
    06:00 +8°C° 0 mm 2 mps 757 mmHg 60%
    07:00 +9°C° 0 mm 3 mps 757 mmHg 60%
    08:00 +11°C° 0 mm 3 mps 756 mmHg 56%
    09:00 +13°C° 0 mm 3 mps 756 mmHg 52%
    10:00 +16°C° 0 mm 3 mps 755 mmHg 49%
    11:00 +17°C° 0 mm 3 mps 755 mmHg 45%
    12:00 +18°C° 0 mm 3 mps 754 mmHg 42%
    13:00 +19°C° 0 mm 3 mps 754 mmHg 38%
    14:00 +20°C° 0 mm 3 mps 753 mmHg 39%
    15:00 +20°C° 0 mm 3 mps 752 mmHg 40%
    16:00 +20°C° 0 mm 3 mps 752 mmHg 40%
    17:00 +18°C° 0 mm 3 mps 751 mmHg 46%
    18:00 +16°C° 0 mm 2 mps 751 mmHg 52%
    19:00 +15°C° 0 mm 2 mps 751 mmHg 57%
    20:00 +14°C° 0 mm 2 mps 750 mmHg 61%
    21:00 +13°C° 0 mm 3 mps 750 mmHg 64%
    22:00 +12°C° 0 mm 4 mps 750 mmHg 67%
    23:00 +12°C° 0 mm 4 mps 750 mmHg 70%

    13 April, Monday

    Time Temperature Precipitation Wind Pressure Humidity
    00:00 +11°C° 0 mm 4 mps 749 mmHg 73%
    01:00 +11°C° 0 mm 4 mps 749 mmHg 77%
    02:00 +11°C° 0 mm 4 mps 748 mmHg 78%
    03:00 +11°C° 0 mm 4 mps 748 mmHg 79%
    04:00 +11°C° 0 mm 4 mps 748 mmHg 80%
    05:00 +12°C° 0 mm 4 mps 747 mmHg 79%
    06:00 +12°C° 0 mm 4 mps 747 mmHg 78%
    07:00 +13°C° 0 mm 4 mps 747 mmHg 77%
    08:00 +14°C° 0 mm 5 mps 746 mmHg 69%
    09:00 +16°C° 0 mm 5 mps 746 mmHg 62%
    10:00 +19°C° 0 mm 6 mps 746 mmHg 54%
    11:00 +20°C° 0.1 mm 6 mps 745 mmHg 52%
    12:00 +20°C° 0.1 mm 7 mps 745 mmHg 50%
    13:00 +20°C° 0.1 mm 7 mps 744 mmHg 49%
    14:00 +18°C° 0.6 mm 7 mps 743 mmHg 55%
    15:00 +17°C° 0.6 mm 7 mps 743 mmHg 62%
    16:00 +16°C° 0.6 mm 6 mps 742 mmHg 69%
    17:00 +12°C° 0.7 mm 7 mps 742 mmHg 73%
    18:00 +10°C° 0.7 mm 7 mps 742 mmHg 78%
    19:00 +7°C° 0.7 mm 8 mps 743 mmHg 82%
    20:00 +6°C° 0 mm 7 mps 743 mmHg 81%
    21:00 +5°C° 0 mm 6 mps 744 mmHg 81%
    22:00 +6°C° 0 mm 5 mps 745 mmHg 80%
    23:00 +5°C° 0.1 mm 5 mps 745 mmHg 83%
    Show more